Home > Weather > Langfang > Past weeks

Flag for China Past Weather in Langfang, Hebei, China — Yesterday and Last 2 Weeks

Now
82 °F

Sprinkles. Overcast.


Feels Like: 91 °F
Forecast: 78 / 88 °F
Wind: 3 mph from Southeast

Location: Beijing Airport

Current Time: Jul 24, 2016 at 8:57:18 PM

Latest Report: Jul 24, 2016 at 8:30 PM


Visibility: N/A

Pressure: 29.68 "Hg

Humidity: 84%

Dew Point: 77 °F

Location of LangfangLocation

Past Weather in Langfang — Graph

°F

Langfang Temperature Yesterday

Maximum temperature yesterday: 91 °F (at 1:30 PM)
Minimum temperature yesterday: 73 °F (at 9:00 PM)
Average temperature yesterday: 83 °F

High & Low Weather Summary for the Past Weeks

 TemperatureHumidityPressure
High99 °F (Jul 10, 2:00 PM)100% (Jul 21, 5:30 AM)29.77 "Hg (Jul 21, 5:30 AM)
Low70 °F (Jul 15, 3:30 AM)25% (Jul 13, 2:30 PM)29.45 "Hg (Jul 11, 3:30 PM)
Average80 °F74%29.62 "Hg
* Reported Jul 9 7:00 PM — Jul 24 7:30 PM, Langfang, Weather by CustomWeather, © 2016

Note: Actual official high and low records may vary slightly from our data, if they occured in-between our weather recording intervals... More about our weather records

Advertising

Langfang Weather History for the Previous 24 Hours

Scroll right to see more
 ConditionsComfort  
Time TempWeatherWind HumidityBarometerVisibility
7:30 PM
Sun, Jul 24
86 °FSprinkles. Clear.8 mph70%29.65 "HgN/A
7:00 PM86 °FPassing clouds.13 mph70%29.65 "HgN/A
6:30 PM90 °FFog.6 mph75%29.65 "Hg3 mi
6:00 PM90 °FFog.8 mph75%29.62 "Hg3 mi
5:30 PM91 °FHaze.6 mph71%29.65 "Hg3 mi
5:00 PM91 °FHaze.6 mph71%29.65 "Hg3 mi
4:30 PM91 °FClear.6 mph71%29.65 "Hg4 mi
4:00 PM93 °FClear.6 mph63%29.62 "Hg4 mi
3:30 PM93 °FClear.3 mph63%29.62 "Hg4 mi
3:00 PM93 °FClear.3 mph63%29.62 "Hg4 mi
2:30 PM93 °FClear.1 mph63%29.62 "Hg4 mi
2:00 PM91 °FClear.3 mph67%29.65 "Hg4 mi
1:30 PM91 °FClear.3 mph63%29.65 "Hg4 mi
1:00 PM90 °FClear.3 mph71%29.65 "Hg5 mi
12:30 PM90 °FClear.1 mph67%29.65 "Hg5 mi
12:00 PM90 °FClear.1 mph67%29.68 "Hg5 mi
11:30 AM90 °FClear.1 mph67%29.68 "Hg5 mi
11:00 AM90 °FSunny.3 mph67%29.65 "Hg10 mi
10:30 AM88 °FSunny.1 mph70%29.65 "Hg10 mi
10:00 AM84 °FPassing clouds.3 mph74%29.68 "HgN/A
9:30 AM84 °FPassing clouds.3 mph74%29.68 "HgN/A
9:00 AM82 °FPassing clouds.1 mph74%29.68 "HgN/A
8:30 AM81 °FPassing clouds.1 mph84%29.68 "HgN/A
8:00 AM79 °FScattered clouds.3 mph89%29.68 "HgN/A
7:30 AM77 °FScattered clouds.3 mph89%29.65 "HgN/A
7:00 AM77 °FPartly sunny.6 mph94%29.68 "HgN/A
6:30 AM77 °FOvercast.1 mph89%29.65 "HgN/A
6:00 AM77 °FOvercast.6 mph89%29.62 "HgN/A
5:30 AM77 °FOvercast.1 mph89%29.65 "HgN/A
5:00 AM77 °FPassing clouds.1 mph94%29.65 "HgN/A
4:30 AM77 °FPassing clouds.1 mph94%29.62 "HgN/A
4:00 AM75 °FPassing clouds.1 mph100%29.62 "HgN/A
3:30 AM75 °FClear.1 mph100%29.62 "Hg10 mi
3:00 AM75 °FClear.1 mph94%29.62 "Hg10 mi
2:30 AM75 °FClear.1 mph94%29.62 "Hg10 mi
2:00 AM75 °FPassing clouds.3 mph94%29.62 "HgN/A
1:30 AM75 °FClear.3 mph94%29.62 "Hg10 mi
1:00 AM75 °FClear.1 mph94%29.62 "Hg10 mi
12:30 AM75 °FClear.1 mph94%29.62 "Hg10 mi
12:00 AM75 °FPassing clouds.6 mph94%29.62 "HgN/A
11:30 PM
Sat, Jul 23
75 °FClear.3 mph89%29.62 "Hg10 mi
11:00 PM75 °FPassing clouds.3 mph89%29.62 "HgN/A
10:30 PM75 °FClear.1 mph94%29.62 "Hg10 mi
10:00 PM75 °FPassing clouds.6 mph89%29.62 "HgN/A
9:30 PM75 °FSprinkles. Passing clouds.3 mph89%29.65 "HgN/A
9:00 PM73 °FThunderstorms. Passing clouds.15 mph94%29.65 "Hg4 mi
8:30 PM82 °FThunderstorms. Passing clouds.26 mph66%29.65 "HgN/A
8:00 PM84 °FPassing clouds.6 mph84%29.56 "Hg4 mi
Weather by CustomWeather, © 2016

See weather overviewHow to use our weather pages